Simultaneous Nadir Overpasses (SNOs) Predictions

Prediction of SNOs between AQUA and GOES-15 Satellite Orbit:

Table of predicted SNOs for the next 14.0 days since TLE Epoch: 12/25/2021
Index Date Time (AQUA) AQUA Lat,Lon GOES-15 Lat,Lon Distance(km) Time Diff (sec)
1 12/26/2021 22:10:59 -0.08,-128.70 0.05,-128.02 76.68 80
2 12/28/2021 21:58:49 0.56,-125.75 0.04,-128.08 265.33 80
3 12/29/2021 10:20:03 0.57,-130.90 -0.05,-128.10 319.07 80
4 12/31/2021 10:07:54 -0.09,-127.95 -0.05,-128.14 22.02 80
5 01/02/2022 09:55:43 -0.70,-124.98 -0.04,-128.17 362.37 80
6 01/02/2022 22:17:07 -0.36,-130.18 0.05,-128.17 228.07 80
7 01/04/2022 22:04:56 0.27,-127.22 0.04,-128.20 111.91 80
8 01/05/2022 10:26:12 0.81,-132.38 -0.05,-128.22 472.69 80
9 01/06/2022 21:52:45 0.91,-124.26 0.04,-128.23 451.96 80
10 01/07/2022 10:14:00 0.23,-129.41 -0.05,-128.25 132.68 80
